Minot International Airport
KMOT : now visible

Airfield :











YOU CAN JOIN US ON...

 
LOGIN :

Register | Disclaimer

   EN    FR    IT 

 









Legend :    VFR   Marginal VFR   IFR   Intensive IFR   Very Intensive IFR
Visi :
Ceiling :
>= 8 km
>= 3000ft
5 to 8 km
1000 to 3000 ft
1500m to 5 km
500 to 1000 ft
800 to 1500m
200 to 500 ft
< 800m
< 200 ft
Symbols :   Thunderstorms  Fog  Heavy snow  Heavy precipitations  Wind > 20 kt






- Airport Elevation : 1716 ft
- IATA code : MOT


KMOT - Minot International

CURRENT METAR :
  • 220154Z 33005KT 10SM CLR M05/M08 A3016 RMK AO2 SLP242 T10501078

EXPIRED METARs :
  • 220054Z 35006KT 10SM CLR M05/M07 A3014 RMK AO2 SLP233 T10501072
  • 212354Z 04004KT 10SM CLR M03/M07 A3012 RMK AO2 SLP227 T10281072 10028 21028 53005

TAF KMOT
Valid from the 22 at 00:00 until the 23 at 00:00 UTC


212335Z 2200/2224 05005KT P6SM BKN120
FM221100 02008KT 6SM -SN OVC050
FM221700 36010KT 4SM -SN OVC018
KZMP FIR / North America



MET'MAP, your aeronautical weather chart ! - Copyright ORBIFLY December 2007 - Disclaimer

ORBIFLY MET'MAP TEAM :

Programming & Development : Alexandra Zaïnal
Concept & original design : Baudouin d'Aumeries
Assistance for programming : Marc-Olivier Méhu
Technical & hardware support : Manuel Goepfert

Contact : metmap@orbifly.com




SOURCES & CREDITS :

   NOAA       Earth
Advisory